AGILA

Last updated on Sun Dec 14 2025 00:02:54 GMT+0000 (Coordinated Universal Time)

1 62456U 24252C 25347.16989204 -.00000168 00000+0 00000+0 0 9992 2 62456 0.0495 131.1240 0001599 131.9691 32.3342 1.00270682 3296
UTC large
Height (km)
Speed (km/s)
/
Latitude / Longitude
Inclination (degrees)
Orbital Period (minutes)
Azimuth
Elevation
Range (km)
Doppler Factor

Next 0 passes for location: London (51.5072 / 0.1276)

Sorry there are no passes over London.